Location: Berg
(47.2344°N, 9.5296°E)
Time: 07:59:51
(UTC+00:00)

Envisat - Pass Details

Date: 21 September 2021
Orbit: 764 x 766 km, 98.2° (Epoch: 25 October)

Event Time Altitude Azimuth Distance (km) Brightness Sun altitude
Rises 03:06:18 0° 31° (NNE) 3,242 7.2 -20.7°
Reaches altitude 10° 03:09:57 10° 59° (ENE) 2,309 6.7 -20.1°
Maximum altitude 03:12:19 13° 87° (E) 2,086 6.2 -19.8°
Drops below altitude 10° 03:14:42 10° 115° (ESE) 2,300 6.0 -19.4°
Sets 03:18:18 0° 142° (SE) 3,219 6.4 -18.8°
